Printer-friendly version

IAU Minor Planet Center

Minor Planet Center

MPEC 2007-T101: 2007 TE66

The following Minor Planet Electronic Circular may be linked-to from your own Web pages, but must not otherwise be redistributed electronically.


Read MPEC 2007-T100 Read MPEC 2007-T102


M.P.E.C. 2007-T101                               Issued 2007 Oct. 13, 17:11 UT

     The Minor Planet Electronic Circulars contain information on unusual
         minor planets and routine data on comets.  They are published
   on behalf of Commission 20 of the International Astronomical Union by the
          Minor Planet Center, Smithsonian Astrophysical Observatory,
                          Cambridge, MA 02138, U.S.A.

             Prepared using the Tamkin Foundation Computer Network

                              MPC@CFA.HARVARD.EDU
          URL http://www.cfa.harvard.edu/iau/mpc.html  ISSN 1523-6714

                                   2007 TE66

Observations:
     K07T66E* C2007 10 12.45462 03 39 23.32 +11 07 19.3          20.1 V ET101G96
     K07T66E  C2007 10 12.46002 03 39 23.07 +11 07 07.5          20.1 V ET101G96
     K07T66E  C2007 10 12.46545 03 39 22.82 +11 06 55.5          20.0 V ET101G96
     K07T66E  C2007 10 12.47087 03 39 22.57 +11 06 43.8          20.0 V ET101G96
     K07T66E  C2007 10 12.49265 03 39 21.49 +11 05 56.0          20.3 V ET101G96
     K07T66E  C2007 10 12.49553 03 39 21.38 +11 05 49.4          20.4 V ET101G96
     K07T66E  C2007 10 12.49839 03 39 21.20 +11 05 43.2          20.4 V ET101G96
     K07T66E  C2007 10 13.34248 03 38 47.95 +10 34 38.5          20.8 R ET101651
     K07T66E  C2007 10 13.34392 03 38 47.95 +10 34 35.8          20.6 R ET101651
     K07T66E  C2007 10 13.34536 03 38 47.88 +10 34 32.7          20.6 R ET101651
     K07T66E  C2007 10 13.39665 03 38 45.09 +10 32 37.8          20.0 V ET101G96
     K07T66E  C2007 10 13.39840 03 38 45.02 +10 32 34.0                 ET101G96
     K07T66E  C2007 10 13.40019 03 38 44.97 +10 32 29.6                 ET101G96
     K07T66E  C2007 10 13.40197 03 38 44.82 +10 32 26.6          19.9 V ET101G96

Observer details:
651 Grasslands Observatory, Tucson.  Observer J. E. McGaha.  0.62-m f/5.1
    Newtonian reflector + CCD.
G96 Mt. Lemmon Survey.  Observer R. E. Hill.  Measurers E. C. Beshore,
    G. J. Garradd, A. R. Gibbs, A. D. Grauer, R. E. Hill, R. A. Kowalski,
    S. M. Larson, R. H. McNaught, A. Boattini.  1.5-m reflector + CCD.

Orbital elements:
2007 TE66                                                Earth MOID = 0.0701 AU
Epoch 2007 Oct. 27.0 TT = JDT 2454400.5                 MPC
M 200.77314              (2000.0)            P               Q
n   0.86050908     Peri.    5.03378     -0.93345584     +0.35515357
a   1.0947100      Node   196.05060     -0.33511292     -0.91345472
e   0.1530431      Incl.   10.47370     -0.12790438     -0.19866158
P   1.15           H   21.1           G   0.15           U   9
Residuals in seconds of arc
071012 G96  0.2-  0.1-    071012 G96  0.2+  0.0     071013 G96  0.4-  0.1-
071012 G96  0.0   0.1-    071012 G96  0.4-  0.1+    071013 G96  0.0   0.0
071012 G96  0.2+  0.1-    071013 651  0.8-  0.4-    071013 G96  0.6+  0.4-
071012 G96  0.4+  0.1+    071013 651  0.3+  0.1+    071013 G96  0.2-  0.6+
071012 G96  0.2-  0.2+    071013 651  0.4+  0.2+

Ephemeris:
2007 TE66                a,e,i = 1.09, 0.15, 10                  q = 0.9272
Date    TT    R. A. (2000) Decl.     Delta      r     Elong.  Phase     V
2007 10 07    03 41.75   +14 13.3    0.333    1.262   136.5    33.0    20.6
2007 10 17    03 35.63   +08 13.6    0.298    1.259   147.9    24.9    20.1
2007 10 27    03 21.96   +01 06.8    0.277    1.254   157.4    17.7    19.7
2007 11 06    03 02.79   -06 06.6    0.271    1.246   157.6    17.7    19.7
2007 11 16    02 42.28   -12 03.8    0.280    1.235   147.8    25.3    20.0
2007 11 26    02 25.24   -15 54.7    0.301    1.221   135.9    34.2    20.3
2007 12 06    02 14.45   -17 42.7    0.330    1.205   125.1    42.0    20.7
2007 12 16    02 10.61   -17 54.7    0.361    1.187   115.9    48.2    21.1
2007 12 26    02 13.08   -17 00.9    0.392    1.167   108.2    53.2    21.4
2008 01 05    02 20.66   -15 23.1    0.420    1.145   101.7    57.3    21.6
2008 01 15    02 32.40   -13 15.0    0.443    1.121    96.2    60.7    21.7
2008 01 25    02 47.50   -10 46.2    0.460    1.096    91.4    63.8    21.9
2008 02 04    03 05.32   -08 02.0    0.470    1.071    87.2    66.8    22.0
2008 02 14    03 25.56   -05 05.0    0.473    1.046    83.5    69.8    22.0
2008 02 24    03 47.93   -01 57.3    0.468    1.021    80.3    72.8    22.0
2008 03 05    04 12.28   +01 21.7    0.457    0.997    77.4    76.1    22.0
2008 03 15    04 38.65   +04 53.9    0.439    0.976    74.8    79.5    22.0
2008 03 25    05 07.06   +08 41.9    0.415    0.958    72.5    83.1    22.0
2008 04 04    05 37.70   +12 50.7    0.388    0.943    70.3    86.9    22.0
2008 04 14    06 11.08   +17 25.5    0.358    0.933    68.5    90.6    21.9
2008 04 24    06 47.81   +22 30.1    0.327    0.928    67.0    94.1    21.9
2008 05 04    07 29.01   +28 04.1    0.299    0.928    66.0    96.9    21.8
2008 05 14    08 16.44   +33 54.6    0.274    0.933    65.9    98.5    21.7
2008 05 24    09 11.85   +39 32.1    0.255    0.943    67.1    98.5    21.6
2008 06 03    10 16.38   +44 06.0    0.242    0.958    69.7    96.6    21.4
2008 06 13    11 28.42   +46 38.7    0.235    0.976    73.7    92.9    21.2
2008 06 23    12 41.84   +46 35.1    0.233    0.997    78.7    88.0    21.0
2008 07 03    13 49.40   +43 55.8    0.235    1.021    84.3    82.4    20.9
2008 07 13    14 47.51   +39 12.0    0.241    1.046    90.2    76.5    20.8
2008 07 23    15 36.36   +33 04.4    0.251    1.071    95.8    70.7    20.7
2008 08 02    16 18.04   +26 06.7    0.266    1.096   100.8    65.4    20.7
2008 08 12    16 54.98   +18 51.4    0.286    1.121   104.8    60.9    20.8
2008 08 22    17 28.87   +11 49.2    0.312    1.145   107.5    57.4    20.9
2008 09 01    18 00.91   +05 23.0    0.346    1.167   108.7    55.0    21.1
2008 09 11    18 31.98   -00 10.3    0.386    1.187   108.5    53.5    21.4
2008 09 21    19 02.42   -04 42.5    0.434    1.206   107.2    52.7    21.6
2008 10 01    19 32.43   -08 13.2    0.487    1.222   105.0    52.3    21.9

Timothy B. Spahr             (C) Copyright 2007 MPC           M.P.E.C. 2007-T101

Read MPEC 2007-T100 Read MPEC 2007-T102


Our Web policy. Index to the CBAT/MPC/ICQ pages.


Valid HTML 4.01!